Wind_Speed
4 4 5 11 5 3 4 4 7 3 7 5 12 7 7 7 4 11 11 10 9 9 10 22 24 25 29 29 32 33 29 26 24 18 15 16 18 17 17 16 13 11 10 8
6 5 10 4 6 4 5 3 5 1 7 2 4 11 5 8 7 10 13 12 12 8 9 16 20 24 28 33 30 28 28 28 23 22 22 16 14 17 20 18 14 11 10 9
5 6 4 4 4 3 2 7 4 4 6 2 3 4 5 3 2 5 6 11 12 13 13 12 19 23 25 28 32 33 31 29 23 22 19 14 11 16 20 19 16 12 11 9
5 4 7 5 6 7 5 9 12 6 5 3 8 4 4 5 11 8 11 9 11 10 8 12 20 23 27 32 32 35 30 30 26 24 22 16 17 17 21 22 19 16 13 12
7 3 4 5 8 9 9 14 12 1 5 2 3 2 3 4 2 7 13 10 10 12 12 15 20 26 31 28 33 34 31 29 28 27 24 19 15 16 17 18 20 16 14 13
7 4 5 6 2 4 7 5 8 6 4 2 5 6 4 3 4 4 10 12 11 15 12 12 19 22 21 24 27 32 33 31 32 28 25 22 18 16 18 20 20 18 16 16
6 3 2 3 3 5 7 7 2 2 3 5 3 2 1 2 2 3 8 14 12 12 12 10 12 19 23 26 27 31 35 34 35 30 27 25 22 20 20 23 22 20 19 18
2 7 4 2 7 7 5 8 6 5 4 5 1 2 4 3 2 2 7 1 6 7 11 11 17 21 24 27 29 30 33 34 36 33 29 27 24 22 19 22 22 21 21 19
4 5 3 2 4 6 4 2 3 7 4 2 2 2 1 4 3 5 5 7 3 3 5 13 16 21 23 27 31 33 32 35 36 36 31 30 26 23 20 19 15 22 20 22
5 1 2 4 4 5 3 5 2 4 3 2 4 4 4 5 1 3 4 4 2 2 4 8 14 23 25 27 29 31 35 37 38 36 35 32 29 25 21 20 18 18 15 15
6 3 2 3 3 3 3 2 7 6 3 5 2 6 5 6 5 2 4 6 6 3 5 5 12 23 26 22 25 32 35 36 36 35 38 35 32 27 25 22 21 21 17 16
2 5 2 2 1 1 2 3 5 5 4 1 3 5 2 5 3 5 6 5 3 4 5 7 11 19 25 31 23 29 29 32 37 37 39 39 34 32 28 27 24 23 20 20
6 2 3 7 6 4 2 4 5 6 3 4 5 5 3 5 1 4 3 2 5 7 4 7 6 10 13 16 23 26 30 32 33 34 35 35 36 34 32 30 29 24 25 21
8 3 6 7 6 3 3 4 4 5 4 5 5 3 6 8 7 5 5 3 2 6 3 6 5 9 14 9 9 17 22 23 29 32 34 34 34 34 34 32 29 29 28 26
5 3 3 4 5 3 4 6 8 4 6 6 6 8 5 8 9 9 5 5 4 6 6 8 2 3 11 14 13 11 11 12 13 19 27 29 26 29 31 32 33 33 33 30
3 2 5 2 5 7 3 7 7 4 4 3 2 4 3 3 5 5 7 6 7 4 2 6 7 3 8 11 12 12 11 12 8 10 8 11 14 20 25 27 30 32 32 34
4 6 3 3 3 4 3 4 4 4 4 6 5 7 8 4 6 5 4 4 3 4 6 7 5 4 8 8 11 15 16 20 20 11 8 8 5 3 7 13 23 28 30 31
6 5 2 3 2 2 6 4 4 6 4 4 2 2 5 5 3 4 3 5 6 7 6 7 9 8 8 7 5 3 8 16 15 18 13 6 9 9 9 12 17 25 28 28
5 5 3 4 4 4 3 4 6 5 5 5 5 6 6 7 4 4 5 3 3 5 4 9 8 9 7 5 5 3 2 12 17 19 21 22 14 10 10 10 13 15 27 27
6 6 5 3 5 6 7 4 4 4 3 8 6 7 7 6 3 2 5 6 6 13 13 12 7 6 3 3 3 3 4 4 5 9 13 16 15 13 10 13 10 13 12 16
3 4 6 3 2 5 6 5 1 5 7 8 8 6 8 5 3 5 9 6 11 13 15 13 9 6 4 4 4 3 3 3 4 4 7 8 9 9 8 8 9 4 2 6
5 6 3 3 3 3 7 5 7 7 1 6 7 7 6 4 7 10 8 8 9 11 11 9 8 7 3 3 2 2 3 6 4 4 7 6 8 9 8 6 7 7 5 7
2 5 6 6 6 4 3 6 3 6 6 6 7 6 6 8 5 8 7 7 7 12 11 9 8 5 4 5 4 4 6 6 3 9 13 14 13 12 9 8 8 10 7 4
2 3 3 4 0 3 3 3 5 5 6 5 6 7 7 7 8 6 7 6 8 11 10 9 8 5 4 3 3 4 6 3 7 11 13 14 13 12 9 7 5 4 6 7
4 4 5 1 0 5 1 3 6 5 5 7 6 6 7 8 8 8 6 6 9 10 9 7 8 5 2 2 1 2 3 4 10 13 11 11 11 9 8 9 8 5 5 6
3 6 4 5 7 5 6 5 7 8 8 8 8 6 7 8 10 7 6 13 12 12 11 9 6 5 4 2 2 4 5 6 10 11 9 8 9 10 10 12 13 12 9 7
Wind_Direction
356 80 205 212 167 160 133 168 205 245 179 154 199 219 211 193 191 166 171 167 174 185 175 177 179 179 188 192 193 196 200 201 198 194 193 191 203 228 226 206 203 193 195 197
27 231 236 127 179 221 203 190 216 83 156 151 190 227 197 183 203 183 170 176 187 160 157 175 176 181 184 190 197 201 199 194 201 198 192 202 233 224 207 205 203 194 189 203
165 234 140 183 271 244 255 199 190 195 158 203 341 282 177 238 191 174 206 188 186 181 171 175 176 184 187 196 201 198 197 198 194 188 190 207 199 197 198 203 200 206 203 207
225 255 198 180 243 150 253 181 183 207 102 239 169 275 271 179 204 194 207 189 186 179 190 181 182 184 191 202 200 197 201 199 197 195 191 194 195 194 199 208 209 214 219 205
255 246 174 187 223 168 222 170 184 199 99 62 320 61 257 104 249 228 215 215 195 196 186 187 184 195 195 196 200 201 202 204 200 201 202 198 195 197 198 202 207 217 211 207
237 222 170 205 146 184 128 78 39 42 78 4 231 159 323 6 307 289 222 219 194 191 190 188 188 186 194 192 198 205 206 205 207 206 207 207 203 206 213 211 219 222 215 211
332 251 255 168 133 22 77 74 6 17 19 220 147 73 215 317 323 323 281 204 208 190 189 169 170 180 183 188 193 202 204 207 205 210 210 210 212 215 222 217 222 221 217 213
188 318 192 191 159 181 166 155 150 182 192 242 264 268 212 201 284 349 40 31 181 213 198 184 186 184 189 190 193 198 206 212 209 210 214 214 220 223 217 219 223 235 231 230
171 274 289 52 123 123 185 107 170 104 10 73 282 214 316 177 20 353 41 71 53 265 219 183 189 189 189 194 197 199 205 210 212 213 217 216 220 225 215 215 229 234 239 241
213 243 355 357 68 48 120 149 71 20 134 208 302 281 229 229 318 326 350 11 247 262 235 231 178 190 197 200 200 201 208 213 215 217 219 218 215 216 214 224 234 231 233 232
144 101 286 39 43 176 24 65 54 104 114 152 188 265 212 189 193 235 267 300 296 296 285 246 215 184 192 197 202 203 207 212 215 216 220 218 216 214 215 221 229 227 229 232
85 126 105 186 305 341 188 139 128 119 218 106 144 271 78 136 188 260 270 300 262 249 303 296 206 169 174 196 200 206 208 210 213 215 213 218 220 219 219 221 223 224 228 231
184 23 54 349 359 351 185 134 106 108 93 187 143 262 177 159 189 291 286 19 347 344 358 28 77 131 143 178 196 202 211 214 213 212 215 219 226 225 225 225 223 223 220 224
92 121 153 185 208 152 154 149 129 104 115 175 225 251 219 217 213 248 269 125 315 306 43 85 56 105 108 120 145 186 203 213 212 214 217 220 228 230 228 228 229 229 226 227
102 143 150 245 237 187 183 171 165 155 171 160 225 205 215 204 197 219 233 309 315 297 65 67 136 75 123 115 123 120 145 161 176 200 212 215 227 231 227 230 235 238 236 235
13 149 170 25 351 156 166 189 178 157 136 283 115 269 154 188 164 225 244 262 249 238 59 37 59 137 94 144 164 170 205 210 150 167 162 185 206 221 230 231 238 242 245 240
121 135 105 216 350 91 357 241 149 147 158 148 167 227 147 189 216 214 204 216 126 73 76 115 139 147 150 171 191 225 227 229 227 214 196 180 216 243 237 239 239 242 244 247
130 107 97 169 55 157 236 316 184 127 161 178 170 115 164 162 97 128 134 138 127 123 98 92 114 132 137 153 164 229 276 236 219 204 198 208 238 261 281 279 265 244 241 249
132 124 98 138 162 270 295 178 153 163 228 188 145 137 126 118 101 35 80 80 102 121 106 106 120 117 117 117 129 151 194 224 218 209 210 220 239 272 264 283 265 271 239 240
63 78 118 136 145 189 232 277 151 105 302 168 163 177 144 143 144 211 122 107 102 111 120 118 107 92 76 335 293 240 245 195 223 239 222 225 229 233 250 266 290 270 255 241
76 42 147 143 168 284 234 166 141 98 233 151 155 164 162 166 184 154 132 118 124 124 128 127 110 74 42 341 297 258 255 271 309 303 242 231 236 249 229 227 213 209 204 255
150 139 169 99 99 242 155 79 153 206 307 148 146 172 158 130 129 134 131 132 136 136 138 126 98 86 43 27 26 338 353 342 358 118 134 139 146 147 134 134 148 118 134 135
100 172 177 160 208 246 252 174 182 161 148 180 147 128 131 126 129 141 143 144 152 144 143 128 99 67 39 21 7 329 335 357 140 125 123 122 117 105 98 86 79 91 98 111
357 128 103 107 228 111 185 64 146 163 150 127 113 134 138 136 147 140 146 152 151 148 137 131 105 82 41 18 332 347 343 10 160 129 122 117 110 108 104 104 105 103 93 116
200 134 154 81 34 88 39 257 174 133 106 114 132 148 151 137 155 160 161 160 158 150 147 144 125 104 67 18 57 56 101 144 145 141 131 122 120 124 119 109 103 100 90 101
205 169 138 208 203 149 184 195 152 144 167 175 146 139 158 162 156 136 148 175 171 164 162 159 142 123 108 55 87 113 119 139 149 141 139 136 132 129 131 128 113 112 110 113
Height
771 788 795 782 780 778 781 791 796 788 783 790 794 794 792 788 790 791 792 795 797 799 798 800 805 808 813 818 821 822 824 828 832 835 838 841 842 843 845 847 849 850 851 852
788 797 775 774 778 781 787 788 794 782 782 789 793 793 788 790 789 789 790 793 793 796 799 801 805 808 811 814 819 820 822 826 830 833 837 839 841 841 844 847 848 850 851 852
791 774 763 771 773 780 784 790 791 784 784 786 792 800 795 790 789 790 789 787 788 791 797 799 802 805 810 813 816 818 820 824 828 832 836 838 840 841 843 846 847 848 850 851
782 763 766 774 778 780 793 765 770 770 792 817 789 821 796 794 792 792 789 790 789 791 794 796 798 801 805 808 813 816 819 822 826 831 834 836 838 840 842 844 846 847 849 850
776 761 766 774 768 766 776 757 765 769 794 799 798 815 797 796 805 798 788 786 787 786 789 793 794 797 798 806 810 813 817 820 824 828 831 834 837 839 840 842 845 846 847 849
763 744 750 754 745 749 748 769 784 795 807 828 807 812 817 809 805 794 786 784 782 783 784 788 792 796 800 804 808 811 814 819 822 825 829 832 834 837 839 841 842 843 846 848
765 754 743 739 756 755 769 792 830 829 833 833 806 811 815 801 794 793 784 777 778 778 781 785 788 792 797 800 804 809 812 816 820 823 826 829 831 834 837 839 840 841 843 845
789 794 754 740 755 771 773 788 822 831 842 826 805 816 812 796 793 787 781 776 776 779 777 781 784 787 791 795 800 804 808 812 816 819 822 825 829 831 834 836 838 839 840 842
794 778 743 741 744 752 771 789 780 821 826 828 823 806 799 794 794 788 783 781 779 778 774 776 782 783 786 792 795 798 804 808 812 816 820 822 824 828 831 833 835 836 838 840
761 778 757 748 743 752 758 771 798 815 827 827 825 815 812 796 795 790 787 784 778 774 773 773 773 778 782 785 791 795 798 803 806 811 815 818 820 823 827 830 831 832 835 837
758 770 767 759 769 772 774 785 805 814 826 839 839 826 790 792 792 791 786 783 781 776 772 769 769 770 777 784 788 790 792 798 802 804 810 814 817 820 823 826 828 830 832 834
750 782 791 774 761 759 765 775 793 815 820 831 832 823 785 789 790 789 786 781 778 773 769 764 763 765 772 774 780 786 789 792 795 799 804 808 813 816 819 822 825 827 829 831
749 786 805 793 780 766 767 771 790 804 814 825 828 818 790 789 789 786 784 780 776 772 766 765 762 765 770 775 778 784 787 788 792 795 800 804 808 812 815 818 821 824 826 828
741 782 786 804 786 776 776 771 783 793 815 822 817 797 796 792 788 784 780 775 773 773 770 767 770 770 772 776 779 782 784 788 789 791 795 798 803 807 810 813 816 819 821 824
746 773 773 772 769 768 769 772 776 782 792 799 791 793 779 784 785 782 780 775 773 774 763 769 773 775 776 778 779 783 786 788 789 789 792 794 799 802 805 808 811 814 816 819
754 776 773 770 764 766 767 766 768 774 785 782 784 786 774 776 778 781 779 778 773 775 766 769 769 774 773 779 783 779 788 788 789 789 789 791 795 799 801 802 805 808 810 812
758 772 783 785 773 768 782 767 768 773 773 778 792 777 778 781 779 777 774 775 775 777 776 773 775 775 779 782 781 782 782 782 786 788 789 788 796 796 797 798 800 802 804 807
762 774 784 791 782 800 772 757 754 765 768 768 769 771 773 775 775 775 771 775 774 777 778 780 783 786 783 784 782 781 779 781 784 786 786 789 793 794 794 795 795 796 798 800
741 770 790 793 800 784 761 764 766 765 771 764 768 770 770 772 776 779 774 775 777 779 780 781 785 782 781 782 783 783 785 786 786 785 782 786 788 790 793 793 793 793 792 794
753 756 771 798 791 799 773 750 746 750 785 763 764 767 771 774 786 784 777 778 780 782 785 786 787 785 784 786 785 783 786 786 786 785 784 786 785 785 785 788 789 792 790 789
766 773 778 791 786 779 757 744 745 783 785 758 760 764 769 775 776 773 776 780 782 783 786 788 788 787 786 786 785 783 783 784 782 781 780 781 783 784 785 787 790 789 787 788
758 772 778 789 787 779 743 750 764 757 751 751 759 762 766 766 770 773 776 780 782 784 786 786 787 787 787 786 785 784 783 783 781 780 781 782 783 785 787 786 787 785 788 787
758 753 763 763 770 747 737 740 739 742 745 749 753 761 762 766 769 773 778 781 783 784 786 786 785 785 784 784 785 784 782 781 780 780 781 782 784 785 786 787 787 786 787 791
737 740 754 751 744 741 738 736 737 738 741 746 752 757 761 767 770 774 777 781 783 784 784 784 786 786 784 784 784 782 781 781 781 781 782 783 784 786 789 790 789 790 791 793
740 738 748 750 741 741 738 737 737 740 742 747 751 755 760 765 771 773 777 779 781 782 783 784 784 785 785 784 785 785 785 784 782 783 784 786 786 788 790 790 792 793 794 794
735 739 749 755 735 737 740 736 738 742 745 747 751 757 760 762 768 772 777 779 781 783 784 784 783 784 783 783 783 784 783 784 785 786 786 788 790 790 792 793 794 795 798 798